Bangor, ME

11:40 AM EST on February 27, 2017 (GMT -0500)
Bangor International

Weather History for KBGR - October, 2012

Change the Weather History Date:

Thursday, October 11, 2012

  Actual Average Record
Temperature  
Mean Temperature 44 °F 49 °F  
Max Temperature 53 °F 60 °F 80 °F (1930)
Min Temperature 35 °F 38 °F 22 °F (1952)
Degree Days  
Heating Degree Days 21 16  
Month to date heating degree days 137 157  
Since 1 July heating degree days 370 429  
Cooling Degree Days 0 0  
Month to date cooling degree days 0 0  
Year to date cooling degree days 395 317  
Moisture  
Dew Point 36 °F    
Average Humidity 64    
Maximum Humidity 92    
Minimum Humidity 36    
Precipitation  
Precipitation 0.01 in 0.14 in 0.97 in (1950)
Month to date precipitation 2.30 1.52  
Year to date precipitation 32.92 31.60  
Snow  
Snow 0.00 in 0.00 in 0.00 in (2002)
Month to date snowfall 0.0 0.0  
Since 1 July snowfall 0.0 0.0  
Since 1 September snowfall 0.0 0.0  
Snow Depth 0.00 in    
Sea Level Pressure  
Sea Level Pressure 29.85 in    
Wind  
Wind Speed 9 mph (West)    
Max Wind Speed 23 mph    
Max Gust Speed 37 mph    
Visibility 10 miles    
Events      
T = Trace of Precipitation, MM = Missing Value Source: NWS Daily Summary

Daily Weather History Graph

Daily Weather History Graph

Search for Another Location

Airport or City:

Trip Planner

Search our weather history database for the weather conditions in past years. The results will help you decide how hot, cold, wet, or windy it might be!

Date:

Astronomy

Oct. 11, 2012 Rise Set
Actual Time 6:46 AM EDT 5:56 PM EDT
Civil Twilight 6:16 AM EDT 6:26 PM EDT
Nautical Twilight 5:43 AM EDT 6:59 PM EDT
Astronomical Twilight 5:09 AM EDT 7:33 PM EDT
Moon 2:10 AM EDT (10/11) 3:39 PM EDT (10/11)
Length of Visible Light 12h 09m
Length of Day
11h 10m
Waning Crescent, 18% of the Moon is Illuminated
Oct 11
Waning Crescent
Oct 15
New
Oct 21
First Quarter
Oct 29
Full
Nov 6
Last Quarter

Hourly Weather History & Observations

Time (EDT) Temp. Windchill Dew Point Humidity Pressure Visibility Wind Dir Wind Speed Gust Speed Precip Events Conditions
12:34 AM 53.6 °F - 51.8 °F 94% 29.60 in 10.0 mi WNW 8.1 mph 18.4 mph 0.01 in   Overcast
12:53 AM 52.0 °F - 48.9 °F 89% 29.61 in 10.0 mi WNW 13.8 mph 24.2 mph 0.01 in   Overcast
1:07 AM 51.8 °F - 48.2 °F 88% 29.62 in 10.0 mi WNW 10.4 mph - N/A   Overcast
1:53 AM 50.0 °F - 46.9 °F 89% 29.64 in 10.0 mi West 6.9 mph - N/A   Overcast
2:53 AM 48.0 °F - 43.0 °F 83% 29.64 in 10.0 mi WNW 5.8 mph - N/A   Overcast
3:53 AM 46.9 °F - 39.9 °F 77% 29.66 in 10.0 mi West 8.1 mph - N/A   Mostly Cloudy
4:53 AM 46.0 °F 43.9 °F 39.0 °F 76% 29.69 in 10.0 mi West 4.6 mph - N/A   Mostly Cloudy
5:53 AM 44.1 °F 42.5 °F 39.0 °F 82% 29.73 in 10.0 mi WNW 3.5 mph - N/A   Mostly Cloudy
6:53 AM 43.0 °F 40.3 °F 37.9 °F 82% 29.76 in 10.0 mi West 4.6 mph - N/A   Partly Cloudy
7:53 AM 45.0 °F 41.2 °F 37.0 °F 74% 29.79 in 10.0 mi West 6.9 mph - N/A   Scattered Clouds
8:53 AM 48.0 °F - 37.0 °F 66% 29.82 in 10.0 mi West 8.1 mph 21.9 mph N/A   Partly Cloudy
9:53 AM 45.0 °F 38.2 °F 37.0 °F 74% 29.87 in 10.0 mi West 15.0 mph 28.8 mph 0.01 in   Mostly Cloudy
10:53 AM 50.0 °F - 34.0 °F 54% 29.88 in 10.0 mi WNW 17.3 mph 28.8 mph N/A   Mostly Cloudy
11:53 AM 50.0 °F - 30.9 °F 48% 29.90 in 10.0 mi WNW 19.6 mph 31.1 mph N/A   Mostly Cloudy
12:53 PM 52.0 °F - 27.0 °F 38% 29.92 in 10.0 mi West 18.4 mph 36.8 mph N/A   Mostly Cloudy
1:53 PM 51.1 °F - 26.1 °F 38% 29.94 in 10.0 mi WNW 17.3 mph 33.4 mph N/A   Mostly Cloudy
2:53 PM 50.0 °F - 24.1 °F 36% 29.97 in 10.0 mi West 19.6 mph 29.9 mph N/A   Scattered Clouds
3:53 PM 52.0 °F - 26.1 °F 37% 29.99 in 10.0 mi West 13.8 mph 27.6 mph N/A   Scattered Clouds
4:53 PM 50.0 °F - 26.1 °F 39% 30.01 in 10.0 mi West 12.7 mph 21.9 mph N/A   Partly Cloudy
5:53 PM 48.2 °F - 26.6 °F 43% 30.02 in 10.0 mi Calm Calm - N/A   Partly Cloudy
6:53 PM 39.9 °F - 32.0 °F 73% 30.04 in 10.0 mi Calm Calm - N/A   Partly Cloudy
7:53 PM 37.0 °F - 32.0 °F 82% 30.04 in 10.0 mi Calm Calm - N/A   Partly Cloudy
9:53 PM 36.0 °F - 33.1 °F 89% 30.06 in 10.0 mi Calm Calm - N/A   Clear
10:53 PM 37.9 °F 35.5 °F 33.1 °F 83% 30.05 in 10.0 mi SSW 3.5 mph - N/A   Partly Cloudy
11:53 PM 39.9 °F 36.7 °F 34.0 °F 79% 30.04 in 10.0 mi South 4.6 mph - N/A   Overcast